Home > Weather > Pontiac > Past weeks

Flag for USA Past Weather in Pontiac, Michigan, USA — Yesterday and Last 2 Weeks

Now
72 °F

Low clouds.


Feels Like: 68 °F
Forecast: 71 / 85 °F
Wind: 6 mph from South

Location: Oakland County International Airport

Current Time: Aug 28, 2016 at 1:16:56 AM

Latest Report: Aug 27, 2016 at 11:53 PM


Visibility: 8 mi

Pressure: 30.11 "Hg

Humidity: 93%

Dew Point: 70 °F

Location of PontiacLocation

Past Weather in Pontiac — Graph

°F

Pontiac Temperature Yesterday

Maximum temperature yesterday: 81 °F (at 12:53 PM)
Minimum temperature yesterday: 65 °F (at 2:53 AM)
Average temperature yesterday: 72 °F

High & Low Weather Summary for the Past Weeks

 TemperatureHumidityPressure
High85 °F (Aug 19, 2:53 PM)97% (Aug 12, 11:53 PM)30.26 "Hg (Aug 12, 11:53 PM)
Low57 °F (Aug 23, 5:53 AM)43% (Aug 22, 4:53 PM)29.58 "Hg (Aug 20, 9:53 PM)
Average73 °F77%29.99 "Hg
* Reported Aug 12 11:53 PM — Aug 27 11:53 PM, Pontiac, Weather by CustomWeather, © 2016

Note: Actual official high and low records may vary slightly from our data, if they occured in-between our weather recording intervals... More about our weather records

Advertising

Pontiac Weather History for the Previous 24 Hours

Scroll right to see more
 ConditionsComfort  
Time TempWeatherWind HumidityBarometerVisibility
11:53 PM
Sat, Aug 27
72 °FLow clouds.6 mph93%30.11 "Hg8 mi
10:53 PM71 °FLow clouds.5 mph93%30.11 "Hg10 mi
9:53 PM71 °FFog.5 mph93%30.10 "Hg6 mi
8:53 PM71 °FLow clouds.8 mph93%30.09 "Hg8 mi
7:53 PM72 °FScattered clouds.9 mph91%30.07 "Hg9 mi
6:53 PM72 °FMore clouds than sun.8 mph91%30.07 "Hg10 mi
5:53 PM72 °FCloudy.12 mph91%30.08 "Hg10 mi
4:53 PM71 °FDrizzle. Mostly cloudy.14 mph93%30.09 "Hg8 mi
3:53 PM70 °FMostly cloudy.9 mph97%30.10 "Hg8 mi
2:53 PM71 °FRain. Fog.3 mph93%30.12 "Hg2 mi
2:02 PM72 °FStrong thunderstorms. Fog.22 mph91%30.15 "Hg1 mi
12:53 PM81 °FBroken clouds.10 mph56%30.10 "Hg10 mi
11:53 AM79 °FPartly sunny.12 mph62%30.11 "Hg10 mi
10:53 AM76 °FBroken clouds.9 mph69%30.13 "Hg10 mi
9:53 AM76 °FMore clouds than sun.12 mph74%30.14 "Hg10 mi
8:53 AM74 °FOvercast.9 mph82%30.14 "Hg10 mi
7:53 AM71 °FPartly sunny.7 mph84%30.14 "Hg10 mi
6:53 AM71 °FMostly cloudy.3 mph73%30.14 "Hg10 mi
5:53 AM68 °FMostly cloudy.5 mph84%30.13 "Hg10 mi
4:53 AM67 °FClear.No wind87%30.14 "Hg10 mi
3:53 AM66 °FClear.No wind90%30.14 "Hg10 mi
2:53 AM65 °FClear.No wind91%30.13 "Hg10 mi
1:53 AM69 °FClear.No wind81%30.13 "Hg10 mi
Weather by CustomWeather, © 2016

See weather overviewHow to use our weather pages